Total_Precipitation_Accumulation
1.87 1.84 1.81 1.73 1.70 1.69 1.75 1.92 2.14 1.98 1.54 1.19 1.11 1.13 1.23 1.27 1.34 1.24 1.09 1.18 1.20 1.21 1.24 1.25 1.34 1.47 1.47 1.48 1.60 1.74 1.90 2.08 2.30 2.53 2.72 2.82 2.89 3.01
1.78 1.74 1.68 1.60 1.63 1.68 1.72 1.76 1.93 2.07 1.78 1.24 1.06 1.02 1.11 1.16 1.26 1.16 1.07 1.23 1.19 1.12 1.10 1.12 1.17 1.31 1.46 1.47 1.43 1.46 1.53 1.65 1.85 2.07 2.31 2.54 2.69 2.83
1.76 1.75 1.67 1.58 1.58 1.58 1.61 1.63 1.68 1.81 1.79 1.31 1.11 1.08 1.11 1.12 1.14 1.10 1.05 1.05 1.04 1.14 1.09 1.07 1.09 1.17 1.32 1.45 1.44 1.39 1.39 1.48 1.60 1.77 1.96 2.17 2.34 2.43
1.63 1.65 1.64 1.60 1.60 1.54 1.52 1.50 1.45 1.44 1.54 1.37 1.09 1.06 1.06 1.04 1.10 1.15 1.10 1.02 0.94 1.06 1.07 1.05 1.07 1.10 1.17 1.32 1.44 1.44 1.40 1.40 1.45 1.54 1.65 1.75 1.91 2.12
1.52 1.52 1.52 1.56 1.54 1.45 1.39 1.35 1.32 1.33 1.41 1.41 1.19 1.06 1.05 1.05 1.11 1.13 1.11 1.09 1.03 1.07 1.12 1.12 1.15 1.15 1.20 1.27 1.39 1.47 1.48 1.43 1.41 1.43 1.51 1.60 1.70 1.87
1.51 1.49 1.43 1.41 1.38 1.33 1.33 1.31 1.36 1.48 1.50 1.53 1.40 1.20 1.13 1.11 1.18 1.19 1.16 1.10 1.11 1.09 1.21 1.26 1.30 1.29 1.28 1.31 1.35 1.43 1.48 1.52 1.55 1.56 1.60 1.67 1.72 1.79
1.50 1.43 1.38 1.39 1.36 1.33 1.36 1.37 1.43 1.61 1.73 1.77 1.65 1.45 1.32 1.25 1.21 1.16 1.24 1.24 1.25 1.20 1.21 1.22 1.26 1.30 1.32 1.37 1.42 1.44 1.53 1.60 1.66 1.75 1.80 1.82 1.85 1.89
1.55 1.43 1.36 1.39 1.33 1.34 1.39 1.46 1.61 1.80 1.95 1.96 1.84 1.62 1.32 1.19 1.20 1.34 1.50 1.70 1.64 1.24 1.23 1.28 1.26 1.37 1.34 1.34 1.51 1.56 1.58 1.68 1.77 1.80 1.84 1.86 1.84 1.85
1.49 1.43 1.35 1.28 1.31 1.17 1.25 1.38 1.46 1.60 1.70 1.71 1.67 1.37 1.20 1.16 1.42 1.71 1.75 1.80 1.57 1.27 1.45 1.60 1.43 1.44 1.35 1.41 1.62 1.51 1.50 1.59 1.67 1.70 1.71 1.75 1.75 1.75
1.41 1.35 1.35 1.33 1.32 1.37 1.40 1.43 1.27 1.18 1.21 1.19 1.23 1.20 1.21 1.33 1.65 2.02 2.14 2.14 1.88 1.64 1.66 1.82 1.50 1.37 1.33 1.39 1.60 1.50 1.39 1.40 1.51 1.58 1.60 1.60 1.58 1.65
1.28 1.24 1.25 1.22 1.42 1.62 1.65 1.63 1.38 1.13 1.14 1.27 1.38 1.40 1.48 1.60 1.74 2.12 2.44 2.58 2.25 1.69 1.50 1.64 1.52 1.44 1.45 1.42 1.48 1.58 1.45 1.41 1.44 1.53 1.59 1.60 1.58 1.59
1.20 1.18 1.28 1.27 1.45 1.59 1.54 1.61 1.54 1.26 1.17 1.22 1.28 1.32 1.29 1.39 1.67 1.84 2.38 2.96 2.65 2.03 1.42 1.55 1.60 1.73 2.01 1.56 1.35 1.41 1.45 1.51 1.51 1.53 1.58 1.59 1.60 1.56
1.16 1.10 1.08 1.31 1.44 1.52 1.44 1.32 1.42 1.48 1.39 1.36 1.37 1.35 1.34 1.38 1.46 1.58 1.96 2.79 3.17 2.50 1.63 2.05 2.27 2.00 2.21 1.81 1.46 1.43 1.48 1.55 1.61 1.60 1.59 1.59 1.59 1.62
1.09 0.99 1.04 1.27 1.29 1.32 1.29 1.33 1.51 1.51 1.35 1.48 1.56 1.53 1.49 1.48 1.51 1.58 1.71 1.95 2.28 2.34 1.90 2.28 2.79 2.35 2.45 2.07 1.58 1.50 1.57 1.70 1.77 1.74 1.65 1.71 1.65 1.66
1.07 1.12 1.16 1.20 1.17 1.17 1.29 1.43 1.41 1.28 1.40 1.64 1.65 1.56 1.55 1.63 1.69 1.75 1.75 1.77 1.82 1.79 1.79 1.90 2.23 2.27 2.48 2.39 1.86 1.61 1.78 1.92 1.98 2.00 1.86 1.71 1.60 1.58
1.13 1.16 1.13 1.12 1.13 1.19 1.29 1.29 1.25 1.31 1.57 1.73 1.71 1.63 1.63 1.74 1.85 1.95 2.09 2.04 2.05 1.86 1.65 1.57 1.69 2.08 2.31 1.98 2.03 1.91 1.89 2.25 2.34 2.31 2.07 1.84 1.67 1.53
1.17 1.13 1.09 1.10 1.13 1.12 1.16 1.19 1.26 1.40 1.53 1.55 1.69 1.77 1.74 1.79 1.88 1.98 2.15 2.19 2.12 1.82 1.59 1.46 1.48 1.63 1.85 1.95 2.04 1.87 1.91 2.08 2.26 2.33 2.17 2.11 1.95 1.75
1.26 1.21 1.15 1.12 1.14 1.14 1.17 1.21 1.25 1.40 1.54 1.70 1.81 1.91 2.00 2.02 2.07 2.05 2.09 2.13 2.00 1.69 1.48 1.37 1.42 1.61 1.61 1.56 1.72 1.84 1.88 2.02 2.17 2.16 1.99 2.07 2.12 1.90
1.20 1.17 1.16 1.18 1.20 1.21 1.24 1.29 1.32 1.37 1.63 1.90 2.04 2.10 2.18 2.22 2.20 2.11 1.97 1.86 1.69 1.47 1.31 1.24 1.41 1.89 1.97 1.47 1.24 1.50 1.97 2.10 2.01 2.02 1.93 1.91 2.06 1.92
1.07 1.16 1.23 1.26 1.27 1.29 1.33 1.44 1.53 1.58 1.74 1.95 2.07 2.17 2.32 2.39 2.23 1.96 1.75 1.64 1.54 1.36 1.21 1.10 1.21 1.74 2.34 2.09 1.69 1.46 1.65 2.05 2.23 2.19 1.88 1.75 1.81 1.81
1.00 1.11 1.19 1.26 1.30 1.34 1.39 1.51 1.68 1.82 1.90 2.07 2.17 2.26 2.35 2.36 2.08 1.68 1.46 1.36 1.37 1.35 1.28 1.08 1.00 1.25 1.71 2.00 1.82 1.40 1.47 1.72 2.05 2.45 2.33 2.18 1.97 1.73
0.94 1.04 1.11 1.21 1.32 1.43 1.51 1.61 1.78 1.86 1.95 2.06 2.17 2.20 2.11 2.02 1.83 1.50 1.36 1.35 1.29 1.23 1.16 1.02 0.96 1.13 1.49 1.89 1.66 1.29 1.32 1.39 1.42 1.54 1.91 2.39 2.91 2.81
0.97 1.04 1.10 1.19 1.32 1.46 1.60 1.67 1.76 1.84 1.95 2.07 2.07 1.95 1.80 1.64 1.43 1.39 1.34 1.30 1.29 1.22 1.18 1.15 1.09 1.13 1.26 1.38 1.47 1.35 1.24 1.21 1.17 1.27 1.55 1.61 1.76 2.02